Погода в Пчелиновке

Россия / Воронежская область     50°56′34″N   40°00′10″E
темп.,
°C
ветер,
м/с
пор.,
м/с
влажн.,
%
обл.,
%
осадки,
мм/ч
давл.,
гПа
погр.,
м
22 апреля, чт
чт2200:00+6ююз37875 0.0 1017135
03:00+5юз359258 0.1 101883
06:00+5юз36925 0.0 1019132
09:00+11юз46675 0.0 1021752
12:00+14зюз45499 0.0 10211794
15:00+16зюз344188 0.0 10202222
18:00+15ююз225128 0.0 102062
21:00+12ююз356271 0.0 102197
23 апреля, пт
пт2300:00+10ю336894 0.0 102138
03:00+11ю22695 0.0 102130
06:00+9ю227692 0.0 102129
09:00+13ю456427 0.0 1020511
12:00+16ююв55543 1.1 10191464
15:00+17ююв454681 1.9 10172077
18:00+15ююв346123 0.7 1016220
21:00+10юв5118180 0.8 1016276
24 апреля, сб
сб2400:00+10ююв6118155 0.0 1014301
03:00+9юз41085100 0.1 1013468
06:00+10ююз61187100 1.1 1011811
09:00+6зсз5789100 1.7 1013890
12:00+9з5663100 0.1 10131407
15:00+10зюз695594 0.8 10131638
18:00+9зюз695969 1.1 1013993
21:00+5юз367519 1.3 1014111
25 апреля, вс
вс2500:00+5юз498199 0.1 1013298
03:00+3з61096100 0.8 1015625
06:00+4з6108799 1.1 1016945
09:00+7зсз69635 1.1 10181223
12:00+10з6844100 0.1 10182429
15:00+11з6840100 0.1 10182395
18:00+10зюз574638 0.0 1018899
21:00+6ююз34595 0.0 101946
26 апреля, пн
пн2600:00+4ююз356490 0.0 101972
03:00+4ююз356698 0.0 101986
06:00+4ю3767100 0.0 1018196
09:00+9ююз695289 0.0 1017726
12:00+12ююз6843100 0.0 10161882
15:00+13ююз7104099 0.0 10142443
18:00+8зсз5678100 0.3 1013522
21:00+4з4893100 1.6 1014681